map of ALC home
ALC - Airport
Location
City:  Alicante, Valenciana, Spain
Name:Alicante
Old (Alt.):El Altet
ICAO:LEAL
IATA:ALC

Details
Type:Airport (Aerodrome, Airfield)
Use:Public/Civil
Latitude:3816'56"N (38.282169)
Longitude:033'29"W (-0.558155)
Datum:WGS 1984
Elevation:142 ft (43 m)
Variation:0.29E (WMM2015 magnetic declination)
0.11 annual change
Runways:1
Longest:9842 × 148 ft (3000 × 45 m), paved

Time
Time Zone:UTC+1 (DST+2)
Local Time:

Weather
METAR:LEAL 160800Z 02005KT 350V050 9999 SCT012 BKN025 17/14 Q1019 NOSIG
TAF:LEAL 160500Z 1606/1706 34005KT 9999 FEW010 TX21/1612Z TN12/1706Z PROB40
TEMPO 1606/1618 4000 SHRA BKN010 FEW015CB
BECMG 1609/1612 06012KT
BECMG 1618/1620 04005KT

Related Locations
Nearby:
Farthest:GIS: 12357 mi / 19887 km
Gisborne, GIS, NZ

Find:

   beyond  
but within

Other Information
Maps:
NOTAMs:
Links:
Sources:

  
  • flag of Spain
  • flag of Valenciana
  

Sectional Chart

Flight Planning
at skyvector.com

Satellite Image

Google Maps Satellite view

 

Copyright © 2004-2018 Karl L. Swartz. All rights reserved.
The Great Circle Mapper name and logo are trademarks of the Great Circle Mapper.
All other trademarks mentioned herein belong to their respective owners.
Please see credits for attibutions and further copyright information.

  Follow gcmap on Facebook Follow gcmap on Twitter Follow gcmap on Google+ GCmap on LinkedIn

hCard Microformat

Geo Microformat